Home   Weather   Bad Oldesloe   Past weeks

Flag for Germany Past Weather in Bad Oldesloe, Schleswig-Holstein, Germany — Yesterday and Last 2 Weeks

Now
32 °F

Clear.


Feels Like: 26 °F
Forecast: 28 / 35 °F
Wind: 7 mph from Southwest

Location: Luebeck-Blankensee

Current Time: Jan 18, 2017 at 3:13:38 pm

Latest Report: Jan 18, 2017 at 2:20 pm


Visibility: 6 mi

Pressure: 30.69 "Hg

Humidity: 80%

Dew Point: 27 °F

Location of Bad OldesloeLocation

Past Weather in Bad Oldesloe — Graph

°F

Bad Oldesloe Temperature Yesterday

Maximum temperature yesterday: 36 °F (at 2:50 pm)
Minimum temperature yesterday: 28 °F (at 7:20 am)
Average temperature yesterday: 32 °F

High & Low Weather Summary for the Past Weeks

 TemperatureHumidityPressure
High43 °F (Jan 3, 5:50 pm)100% (Jan 7, 11:50 am)30.77 "Hg (Jan 7, 11:50 am)
Low14 °F (Jan 6, 7:50 am)54% (Jan 6, 2:20 pm)29.06 "Hg (Jan 13, 6:50 am)
Average33 °F85%30.05 "Hg
* Reported Jan 3 1:20 pm — Jan 18 1:50 pm, Bad Oldesloe, Weather by CustomWeather, © 2017

Note: Actual official high and low records may vary slightly from our data, if they occured in-between our weather recording intervals... More about our weather records

Advertising

Bad Oldesloe Weather History for the Previous 24 Hours

Scroll right to see more
 ConditionsComfort  
Time TempWeatherWind HumidityBarometerVisibility
1:50 pm
Wed, Jan 18
32 °FClear.8 mph75%30.72 "Hg6 mi
1:20 pm32 °FClear.9 mph80%30.72 "Hg6 mi
12:50 pm32 °FSunny.8 mph75%30.72 "Hg10 mi
12:20 pm30 °FClear.8 mph86%30.72 "Hg6 mi
11:50 am30 °FClear.6 mph80%30.72 "Hg6 mi
11:20 am30 °FClear.7 mph86%30.74 "Hg6 mi
10:50 am28 °FClear.6 mph93%30.72 "Hg6 mi
10:20 am28 °FClear.5 mph86%30.72 "Hg6 mi
9:50 am28 °FClear.6 mph93%30.72 "Hg6 mi
9:20 am28 °FClear.5 mph93%30.72 "Hg6 mi
8:50 am28 °FSunny.5 mph86%30.72 "Hg10 mi
8:20 am28 °FClear.5 mph86%30.72 "Hg10 mi
7:50 am28 °FClear.6 mph86%30.69 "Hg10 mi
7:20 am28 °FClear.5 mph86%30.69 "Hg10 mi
6:50 am28 °FClear.5 mph93%30.69 "Hg10 mi
6:20 pm
Tue, Jan 17
32 °FPassing clouds.2 mph75%30.69 "HgN/A
5:50 pm32 °FPassing clouds.1 mph75%30.66 "HgN/A
5:20 pm32 °FPartly cloudy.No wind75%30.66 "HgN/A
4:50 pm32 °FPassing clouds.1 mph75%30.66 "HgN/A
4:20 pm32 °FSunny.1 mph75%30.66 "Hg10 mi
3:50 pm32 °FSunny.2 mph75%30.66 "Hg10 mi
3:20 pm34 °FPartly sunny.3 mph70%30.66 "HgN/A
Weather by CustomWeather, © 2017

See weather overviewHow to use our weather pages